Temperature
7 7 7 7 7 7 7 7 7 7 7 8 8 7 7 7 8 7 7 7 7 7 7 6 6 6 6 6 6 6 6 6 5 6 6 6 6 6 6 6 6 6 6
6 6 6 7 6 7 7 7 7 7 7 7 7 7 7 7 7 7 7 6 6 6 6 6 6 5 5 5 5 5 5 5 5 5 5 5 5 6 6 6 5 5 5
6 6 6 6 6 6 6 6 6 6 6 6 6 6 6 6 6 6 6 6 6 5 5 5 5 5 5 5 5 5 5 5 5 5 5 5 5 5 5 5 5 5 5
5 5 5 5 5 5 6 6 6 6 6 6 6 6 6 6 6 6 5 5 5 5 5 5 5 4 4 4 4 4 4 4 4 4 4 4 4 4 4 4 4 3 4
5 5 5 5 5 5 5 5 5 5 5 5 5 5 5 5 5 5 5 5 5 5 4 4 4 4 4 4 4 4 4 4 4 4 4 3 3 3 3 3 3 3 3
5 5 5 5 5 5 5 5 5 5 5 5 5 5 5 5 4 4 4 4 4 4 4 4 4 4 4 4 4 4 4 4 4 3 3 3 3 3 3 3 2 2 2
4 5 4 4 4 4 4 4 4 4 4 4 4 4 4 4 4 4 4 4 3 3 3 3 3 3 3 3 3 3 3 3 3 3 3 3 3 3 3 3 2 2 2
4 4 4 4 4 4 4 4 4 4 4 4 4 4 4 4 4 3 3 3 3 3 3 3 3 3 3 3 3 3 3 3 3 3 3 3 3 3 3 3 2 2 2
4 4 4 4 4 4 4 4 3 3 4 3 3 3 3 3 3 3 3 3 3 2 2 2 2 2 2 2 2 2 2 2 2 3 3 2 2 2 2 2 2 1 1
4 4 4 3 3 3 3 3 3 3 3 3 3 3 2 2 2 2 2 2 2 2 2 2 2 2 2 2 2 2 2 2 2 2 2 2 2 2 2 1 1 1 1
3 3 3 3 3 3 3 3 3 2 2 2 2 2 2 2 2 2 2 2 2 2 2 2 2 2 2 2 2 1 2 2 2 2 2 2 1 1 1 1 1 1 1
3 3 3 3 3 3 3 3 2 2 2 2 2 2 2 2 2 2 1 1 1 1 1 1 1 1 1 1 1 1 1 1 1 2 1 1 1 1 1 0 0 0 0
3 3 3 3 2 2 2 2 2 2 1 1 1 1 1 1 1 1 1 1 1 1 1 1 1 1 1 1 1 1 1 1 1 1 1 0 0 0 0 -0 -0 -0 -0
3 3 2 2 2 2 2 1 1 1 1 1 0 0 0 0 1 1 0 0 0 0 0 0 0 0 0 0 0 0 0 0 0 0 -0 -0 -0 -1 -1 -1 -1 -1 -1
2 2 2 2 2 1 1 1 1 1 0 0 -0 -0 -0 0 0 -0 -0 -0 -0 -0 -0 -0 -0 -1 -1 -1 -0 -0 -0 -0 -0 -1 -1 -1 -1 -1 -1 -1 -1 -1 -1
2 2 1 1 1 1 1 1 1 0 0 -0 -0 -0 -0 -0 -0 -0 -0 -0 -1 -1 -1 -1 -1 -1 -1 -1 -1 -1 -1 -1 -1 -1 -1 -1 -2 -2 -2 -2 -2 -2 -2
1 1 1 1 1 1 0 0 -0 -0 -0 -0 -0 -1 -1 -1 -1 -1 -1 -1 -1 -1 -1 -2 -2 -2 -2 -2 -2 -2 -2 -2 -2 -2 -2 -2 -2 -2 -2 -2 -2 -2 -2
1 1 1 0 0 0 0 -0 -1 -1 -1 -1 -1 -1 -1 -1 -1 -1 -1 -1 -1 -2 -2 -2 -2 -2 -2 -2 -2 -2 -2 -3 -2 -2 -2 -3 -3 -3 -3 -3 -3 -3 -3
1 0 0 0 -0 -0 -0 -1 -1 -1 -1 -1 -1 -1 -1 -1 -1 -2 -2 -2 -2 -2 -3 -3 -3 -3 -3 -3 -3 -3 -3 -3 -3 -3 -3 -3 -3 -3 -3 -3 -3 -3 -3
0 0 -0 -0 -1 -1 -1 -1 -1 -1 -2 -2 -2 -2 -2 -2 -2 -2 -2 -2 -3 -3 -3 -3 -3 -3 -3 -3 -3 -3 -3 -4 -4 -4 -4 -4 -4 -4 -4 -4 -4 -4 -4
-0 -0 -1 -1 -1 -1 -1 -1 -2 -2 -2 -2 -3 -3 -3 -3 -3 -3 -3 -3 -3 -3 -3 -3 -3 -4 -4 -4 -4 -4 -4 -4 -4 -4 -4 -4 -4 -4 -4 -4 -4 -4 -4
-1 -1 -1 -1 -2 -2 -2 -2 -2 -2 -3 -3 -3 -3 -3 -3 -3 -3 -3 -3 -3 -4 -4 -4 -4 -4 -4 -4 -4 -4 -4 -4 -4 -4 -5 -4 -4 -4 -5 -5 -5 -5 -5
-1 -1 -2 -2 -2 -2 -2 -2 -2 -3 -3 -3 -3 -4 -4 -4 -4 -4 -4 -4 -4 -4 -4 -4 -4 -4 -4 -4 -5 -5 -5 -4 -5 -5 -5 -5 -5 -5 -5 -5 -5 -5 -5
-1 -2 -2 -2 -2 -2 -3 -3 -3 -3 -3 -4 -4 -4 -4 -4 -4 -4 -4 -4 -4 -4 -4 -5 -5 -5 -5 -5 -5 -5 -5 -5 -5 -5 -5 -5 -5 -6 -5 -5 -6 -6 -6
-2 -2 -2 -3 -3 -3 -3 -3 -3 -4 -4 -4 -4 -4 -4 -4 -4 -4 -4 -5 -5 -5 -5 -5 -5 -5 -5 -5 -5 -5 -5 -5 -5 -6 -6 -6 -6 -6 -6 -6 -6 -6 -6
-2 -2 -3 -3 -3 -3 -3 -4 -4 -4 -4 -4 -5 -5 -5 -5 -5 -5 -5 -5 -5 -5 -5 -5 -5 -5 -6 -6 -6 -6 -6 -6 -6 -6 -6 -6 -6 -6 -6 -6 -6 -6 -6
Wind_Speed
4 3 3 3 2 1 1 1 1 2 3 3 3 4 4 4 4 4 5 5 6 7 7 8 9 8 7 7 6 7 7 7 9 7 6 6 6 6 6 6 7 7 8
4 4 3 3 2 2 1 1 1 2 2 3 3 3 4 3 4 4 5 6 6 7 7 8 9 7 8 7 7 8 7 7 7 8 6 5 6 6 5 4 4 5 5
4 3 3 4 3 3 2 2 2 2 2 2 2 2 3 3 3 4 5 6 7 7 7 8 8 8 8 7 7 7 6 6 6 6 6 4 4 4 4 3 2 2 2
3 3 3 3 3 3 3 3 3 2 2 2 2 2 3 3 3 4 5 6 6 6 6 7 7 8 8 7 7 7 6 6 6 5 4 4 3 3 3 3 2 1 1
2 2 3 3 3 3 3 3 3 3 2 2 2 2 3 3 3 4 4 5 5 6 6 6 7 8 9 7 6 6 6 6 5 4 4 3 3 2 3 3 3 1 1
2 2 2 3 2 2 2 2 2 3 3 3 2 2 3 3 4 5 5 5 5 5 5 6 6 6 6 7 7 7 6 6 6 5 4 5 5 4 3 2 2 1 1
1 2 2 2 2 2 2 2 3 3 3 3 3 3 3 4 5 5 5 5 5 4 5 5 5 5 5 5 6 6 6 6 6 6 6 6 5 5 4 4 4 3 2
1 1 2 2 2 2 2 3 3 3 3 3 3 3 3 4 6 6 6 5 4 5 5 5 5 5 5 5 5 5 5 5 4 5 5 5 4 3 5 4 3 2 2
1 2 2 2 2 2 2 3 3 3 3 3 3 3 3 4 5 5 6 4 4 5 5 5 5 5 5 5 5 5 5 5 3 3 2 1 1 3 4 3 3 3 1
2 2 2 2 1 1 2 3 2 2 3 3 3 3 4 4 5 5 5 3 4 5 5 5 4 5 6 6 5 5 5 5 3 2 1 1 1 2 3 3 4 4 2
2 2 2 2 1 2 2 2 2 2 3 3 3 4 4 4 5 5 6 4 4 5 4 4 4 6 6 6 6 5 5 4 2 2 1 0 1 1 1 1 1 2 3
2 2 1 1 1 1 2 2 2 2 2 3 4 4 4 4 4 5 7 6 6 5 4 4 4 5 5 5 4 3 3 2 1 1 1 1 1 1 1 1 2 3 3
3 2 1 1 1 1 1 1 2 2 2 3 3 4 4 4 4 6 7 7 8 5 4 5 5 4 4 3 4 4 2 1 1 0 1 1 0 1 2 2 3 5 6
3 2 1 1 1 1 1 1 2 2 2 2 3 3 4 4 4 5 5 5 5 5 4 3 3 3 3 3 3 2 1 1 0 1 1 0 1 1 2 2 2 3 3
3 2 2 2 2 2 2 2 2 2 2 3 3 3 3 4 6 8 6 4 4 4 4 2 2 2 3 3 3 2 2 1 0 0 1 2 2 1 1 1 2 2 2
4 3 2 2 2 2 2 2 2 3 3 4 4 4 4 6 8 8 8 7 6 5 2 2 2 2 3 3 3 2 1 1 1 0 1 2 2 2 2 2 2 2 3
4 3 3 2 2 2 2 2 2 3 3 4 4 5 5 7 7 8 8 6 4 3 2 2 2 2 2 2 2 2 2 1 1 0 1 1 2 2 3 3 3 3 3
5 4 3 3 3 3 3 3 3 3 3 3 3 4 5 6 6 7 7 4 3 3 2 2 3 2 2 2 2 2 1 1 1 1 1 1 2 2 3 3 3 3 3
5 4 3 3 3 3 3 3 3 3 3 3 3 3 4 5 5 5 4 2 2 2 3 3 3 3 3 2 2 2 1 1 1 1 1 1 1 2 2 3 3 5 4
5 4 4 3 3 3 3 3 3 3 3 3 3 3 3 3 3 3 3 2 2 3 3 3 3 3 3 2 2 2 1 1 1 1 1 1 1 2 3 3 3 4 3
4 4 5 4 3 3 3 3 3 3 3 3 3 4 4 3 3 3 3 3 3 3 3 3 3 3 3 2 2 2 2 1 1 1 1 1 2 2 2 3 3 3 3
4 4 4 4 4 4 4 3 3 3 4 4 4 3 5 3 3 3 3 3 3 3 3 3 3 2 2 2 2 2 2 2 1 1 1 1 1 2 2 3 3 3 4
5 5 5 5 4 5 5 4 4 4 4 4 3 3 3 3 3 4 4 4 4 3 3 3 3 2 2 2 2 2 2 2 2 2 2 2 2 2 2 3 4 4 4
6 6 6 5 5 4 4 4 4 4 4 4 4 4 4 4 4 4 4 3 3 3 3 3 3 3 3 3 3 3 2 2 2 2 2 2 2 2 2 3 3 4 4
6 6 6 5 5 5 5 4 4 4 4 4 4 4 4 4 4 4 4 3 4 3 3 3 3 3 4 3 3 3 3 3 2 2 2 2 3 3 3 3 3 4 4
6 6 6 5 5 5 5 5 4 4 4 4 4 4 4 4 4 4 4 3 3 4 3 3 3 4 4 4 4 3 3 4 3 3 3 3 3 3 3 3 4 4 4
Wind_Direction
29 30 33 30 38 56 42 345 305 293 287 271 265 264 259 257 257 257 257 258 255 258 253 249 251 256 257 256 255 255 256 258 270 291 299 294 278 270 257 242 233 226 225
20 25 32 32 35 38 12 332 315 311 309 290 268 267 265 263 262 262 265 262 256 259 263 259 256 257 258 260 258 257 259 261 267 278 291 300 296 268 261 253 244 228 217
19 27 29 22 18 10 351 334 330 327 319 311 290 284 283 280 275 272 270 273 265 262 262 264 264 262 258 263 264 262 261 267 270 273 283 297 303 280 266 264 268 259 193
21 25 23 12 2 355 351 350 344 330 315 303 301 301 294 290 291 289 282 277 273 268 266 268 269 265 263 267 262 261 261 262 264 265 276 289 291 285 258 241 248 269 246
16 13 4 359 0 2 1 357 351 345 331 318 313 309 305 301 308 307 293 284 283 276 271 271 271 270 270 270 270 267 262 259 260 257 266 278 274 250 240 239 230 239 314
1 357 352 353 360 1 355 351 350 353 349 345 333 317 317 314 317 318 311 293 291 287 283 281 282 274 281 278 278 275 267 259 257 251 253 252 249 248 234 228 220 206 235
350 348 346 343 348 349 347 345 348 354 354 353 339 329 326 328 330 326 323 305 296 292 291 289 292 292 290 284 282 280 272 262 255 251 250 251 241 231 212 206 207 205 221
336 332 333 335 341 345 349 347 349 352 352 353 350 344 338 343 347 340 331 310 301 298 294 289 289 295 300 300 291 289 289 279 268 255 250 252 247 216 204 200 190 140 61
303 307 314 318 322 334 344 344 347 352 351 347 343 342 336 336 345 341 329 309 306 307 304 297 291 292 305 300 285 285 293 295 289 273 273 251 152 150 165 164 157 150 113
270 280 292 294 298 315 329 336 343 346 342 342 340 334 328 328 344 341 330 317 314 310 307 302 302 305 306 300 278 274 280 285 287 277 272 46 109 136 145 180 185 174 152
259 269 284 292 303 316 330 339 344 347 343 344 343 339 336 334 339 344 339 327 314 307 306 308 310 320 316 306 285 274 278 283 266 244 224 153 113 132 149 145 172 174 163
231 242 271 298 317 322 332 339 338 340 341 341 341 340 342 341 343 345 342 334 326 307 304 307 309 322 326 330 317 308 302 284 260 235 210 194 167 154 133 103 82 73 77
221 229 253 289 308 308 303 314 320 327 331 332 331 331 334 335 341 345 342 336 333 323 311 312 312 321 328 328 333 330 329 308 279 218 211 237 206 140 124 105 86 85 74
220 229 239 256 281 295 295 288 290 302 313 320 322 322 325 327 334 338 331 326 327 324 316 312 310 318 323 329 332 332 335 334 217 193 179 128 89 110 117 119 123 116 97
219 225 233 242 259 269 274 280 276 273 292 299 299 304 312 318 325 330 330 324 325 327 325 327 340 343 341 338 340 354 351 344 315 189 161 154 143 136 123 121 131 132 131
214 220 227 234 245 257 266 281 289 286 306 306 309 311 309 316 325 329 328 329 334 344 352 343 334 333 327 332 334 332 329 325 317 246 180 172 176 171 156 148 150 146 140
217 218 223 229 238 251 262 273 291 294 285 292 303 314 318 324 327 329 331 329 335 352 348 336 330 329 324 321 318 314 310 311 299 240 196 184 180 175 168 163 157 148 144
218 217 220 227 236 246 255 266 275 286 294 298 295 303 316 320 325 333 335 335 341 346 333 321 318 319 315 312 308 303 303 309 306 271 207 177 177 177 173 170 165 159 157
217 219 220 226 232 241 248 255 263 271 281 293 305 311 318 314 314 329 340 338 327 322 318 313 312 313 311 307 301 291 275 266 273 266 241 188 175 175 176 173 167 164 166
216 215 217 222 226 232 238 245 255 265 276 287 295 308 320 321 316 321 321 312 304 302 304 306 308 309 307 302 298 290 273 249 234 235 224 197 186 182 177 172 169 171 173
212 210 208 219 225 230 234 240 247 256 266 275 284 300 312 295 291 296 297 294 292 293 293 292 295 299 299 298 294 284 268 251 238 233 221 202 183 179 177 172 168 166 158
209 212 213 219 224 227 233 238 242 250 258 267 279 286 289 283 283 285 286 288 288 287 287 283 282 285 290 287 282 277 265 251 233 223 218 198 189 184 173 168 167 167 164
207 211 215 220 223 227 230 233 237 246 255 263 271 277 275 273 274 276 280 284 288 290 289 282 282 284 286 286 277 260 254 249 236 216 206 191 186 187 180 176 173 172 175
206 211 215 218 219 224 229 233 236 243 251 258 263 266 268 269 271 272 276 280 283 284 284 281 277 281 287 285 277 266 261 266 243 219 201 194 186 183 178 172 174 174 174
206 210 214 217 218 223 227 231 236 241 249 254 261 265 268 268 271 273 273 276 279 279 284 282 280 282 280 280 280 271 257 246 234 224 213 195 189 185 179 176 176 173 174
207 211 213 215 218 222 225 230 235 241 247 253 258 262 264 266 267 270 273 274 277 279 281 278 282 286 290 282 275 275 263 238 225 214 212 197 190 186 181 181 179 179 176
Height
1460 1459 1459 1459 1459 1459 1460 1460 1461 1461 1461 1461 1462 1462 1462 1462 1462 1462 1461 1461 1461 1460 1460 1460 1460 1460 1460 1460 1459 1459 1458 1458 1455 1452 1451 1450 1449 1447 1446 1445 1444 1444 1443
1459 1459 1458 1458 1458 1458 1458 1458 1458 1458 1458 1458 1458 1458 1458 1457 1457 1457 1456 1456 1455 1455 1455 1454 1454 1454 1453 1453 1452 1452 1451 1451 1450 1447 1445 1444 1443 1441 1440 1438 1438 1438 1438
1459 1458 1457 1457 1457 1457 1457 1456 1456 1455 1455 1454 1454 1454 1454 1453 1452 1452 1452 1451 1450 1449 1449 1449 1448 1448 1447 1446 1446 1445 1445 1444 1443 1442 1439 1438 1437 1436 1435 1433 1432 1432 1433
1459 1458 1457 1457 1456 1456 1455 1454 1453 1452 1452 1451 1451 1450 1450 1449 1448 1447 1447 1446 1445 1444 1444 1443 1443 1442 1441 1440 1440 1439 1438 1438 1437 1435 1434 1433 1432 1431 1431 1429 1428 1429 1429
1459 1458 1457 1456 1455 1454 1453 1452 1451 1450 1449 1448 1447 1447 1446 1445 1444 1443 1442 1442 1441 1440 1439 1439 1438 1437 1436 1435 1434 1433 1433 1432 1431 1430 1429 1428 1427 1426 1426 1426 1425 1426 1426
1459 1458 1457 1455 1454 1453 1451 1450 1449 1447 1446 1445 1445 1444 1443 1442 1441 1441 1440 1439 1437 1435 1434 1434 1433 1432 1431 1430 1429 1428 1428 1427 1425 1425 1423 1423 1422 1422 1422 1423 1422 1422 1423
1458 1457 1455 1454 1453 1451 1450 1448 1447 1445 1444 1443 1442 1441 1440 1439 1439 1438 1437 1435 1433 1432 1430 1429 1428 1427 1426 1425 1424 1424 1423 1422 1422 1421 1419 1418 1418 1419 1419 1419 1420 1419 1419
1457 1456 1454 1453 1451 1450 1449 1447 1446 1444 1443 1441 1439 1438 1437 1436 1435 1434 1433 1432 1430 1428 1427 1425 1424 1423 1422 1421 1420 1419 1418 1417 1417 1416 1416 1415 1415 1415 1416 1416 1417 1417 1418
1455 1454 1453 1452 1450 1449 1447 1446 1444 1443 1441 1439 1438 1436 1435 1433 1432 1431 1430 1429 1427 1425 1424 1423 1421 1420 1419 1418 1416 1415 1414 1413 1413 1412 1412 1412 1411 1411 1412 1413 1414 1414 1415
1453 1452 1451 1450 1449 1447 1446 1444 1443 1441 1439 1438 1436 1434 1432 1431 1429 1428 1427 1425 1424 1422 1421 1419 1418 1416 1415 1414 1413 1411 1410 1409 1409 1408 1408 1408 1408 1408 1408 1409 1410 1412 1412
1451 1450 1449 1448 1447 1446 1444 1443 1441 1439 1438 1436 1433 1432 1430 1428 1426 1425 1424 1423 1421 1419 1417 1415 1414 1413 1411 1410 1409 1408 1407 1406 1405 1405 1404 1404 1404 1405 1405 1407 1408 1409 1410
1449 1448 1447 1446 1445 1444 1443 1441 1440 1438 1436 1434 1432 1430 1428 1426 1424 1423 1421 1420 1418 1416 1414 1412 1411 1409 1408 1407 1405 1404 1403 1403 1402 1401 1401 1401 1401 1402 1403 1404 1405 1406 1408
1446 1446 1445 1444 1443 1442 1441 1439 1438 1436 1434 1432 1430 1428 1426 1424 1423 1421 1419 1417 1415 1413 1411 1409 1408 1407 1405 1404 1402 1401 1400 1399 1399 1398 1398 1398 1399 1399 1400 1401 1403 1404 1405
1443 1443 1442 1442 1441 1440 1439 1437 1436 1434 1432 1430 1429 1426 1424 1423 1421 1419 1417 1415 1413 1411 1409 1407 1405 1404 1402 1401 1399 1398 1397 1396 1396 1396 1396 1396 1397 1397 1397 1399 1400 1401 1403
1440 1440 1439 1439 1438 1437 1436 1435 1433 1432 1431 1429 1427 1425 1423 1421 1419 1417 1415 1413 1411 1409 1406 1404 1403 1402 1400 1398 1397 1396 1395 1395 1394 1394 1394 1394 1395 1395 1396 1397 1398 1399 1401
1437 1436 1436 1435 1434 1434 1433 1432 1431 1430 1428 1427 1425 1424 1421 1420 1417 1415 1413 1411 1409 1407 1405 1402 1401 1399 1398 1396 1395 1394 1393 1393 1392 1392 1392 1392 1393 1394 1394 1395 1397 1398 1399
1433 1433 1432 1432 1431 1430 1429 1428 1427 1426 1425 1424 1422 1421 1419 1417 1415 1413 1411 1408 1406 1405 1402 1400 1399 1397 1396 1395 1393 1392 1391 1391 1390 1390 1390 1390 1391 1392 1392 1393 1395 1396 1398
1429 1429 1429 1428 1427 1427 1426 1425 1424 1423 1421 1420 1419 1417 1415 1414 1412 1410 1408 1406 1404 1402 1400 1399 1397 1396 1394 1393 1392 1391 1390 1389 1389 1388 1388 1388 1389 1389 1390 1391 1393 1395 1397
1425 1425 1425 1424 1424 1423 1422 1421 1421 1419 1418 1416 1415 1413 1412 1411 1409 1407 1406 1404 1401 1400 1398 1397 1395 1394 1393 1391 1390 1389 1389 1388 1387 1387 1386 1387 1387 1388 1389 1390 1391 1393 1395
1421 1421 1421 1420 1420 1419 1419 1418 1417 1416 1414 1413 1412 1410 1409 1407 1405 1404 1402 1401 1399 1398 1396 1395 1393 1392 1391 1390 1388 1388 1387 1386 1386 1385 1385 1385 1386 1386 1387 1388 1390 1391 1393
1417 1417 1417 1416 1416 1415 1415 1414 1413 1412 1411 1410 1408 1407 1406 1404 1403 1401 1400 1398 1397 1395 1394 1392 1391 1390 1389 1388 1387 1386 1385 1385 1384 1384 1384 1384 1384 1385 1386 1387 1388 1390 1392
1412 1412 1412 1412 1412 1411 1411 1410 1409 1408 1407 1406 1405 1404 1403 1401 1400 1398 1397 1395 1394 1392 1391 1390 1388 1387 1386 1386 1385 1384 1383 1383 1383 1382 1382 1382 1383 1384 1384 1385 1387 1388 1390
1407 1407 1407 1407 1407 1407 1406 1405 1405 1404 1403 1402 1401 1399 1398 1397 1396 1395 1393 1392 1391 1389 1388 1387 1385 1384 1383 1383 1382 1382 1382 1381 1381 1381 1381 1381 1381 1382 1383 1384 1385 1387 1388
1402 1402 1402 1402 1402 1402 1401 1401 1400 1399 1398 1397 1396 1395 1394 1393 1392 1390 1389 1388 1387 1385 1384 1383 1382 1381 1381 1380 1379 1379 1379 1379 1379 1379 1379 1379 1379 1380 1381 1382 1384 1385 1387
1397 1397 1397 1397 1397 1397 1396 1396 1395 1395 1394 1393 1392 1391 1390 1389 1388 1386 1385 1384 1383 1382 1381 1380 1379 1378 1377 1377 1377 1376 1376 1376 1376 1376 1377 1377 1378 1378 1379 1381 1382 1383 1385
1391 1391 1392 1392 1392 1392 1391 1391 1391 1390 1389 1388 1387 1386 1385 1384 1383 1382 1381 1380 1379 1378 1377 1376 1375 1375 1374 1374 1374 1374 1374 1374 1374 1374 1374 1375 1375 1376 1378 1379 1380 1381 1383